APRIZESAT 2

Last updated on Mon Sep 07 2026 00:03:15 GMT+0000 (Coordinated Universal Time)

1 28366U 04025A 26249.41415350 .00000068 00000+0 34393-4 0 9991 2 28366 98.1112 50.8377 0105627 5.6314 354.6036 14.38065246163319
UTC large
Height (km)
Speed (km/s)
/
Latitude / Longitude
Inclination (degrees)
Orbital Period (minutes)
Azimuth
Elevation
Range (km)
Doppler Factor

Next 0 passes for location: London (51.5072 / 0.1276)

No passes found over London.
APRIZESAT 2